• In Russia
  • List of Countries
  • For 7 days
  • Water Temperature
  • Satellite Maps
  • Weather Map
  • Weather Widgets
  • user-avatar
    Login

    Hourly Weather Hobart

    Today, 20 November, Monday

    Time Temperature Precipitation Wind Pressure Humidity
    00:00 +15°C° 0 mm 2 mps 755 mmHg 86%
    01:00 +15°C° 0 mm 2 mps 755 mmHg 87%
    02:00 +15°C° 0 mm 2 mps 755 mmHg 87%
    03:00 +15°C° 0 mm 2 mps 755 mmHg 88%
    04:00 +15°C° 0 mm 2 mps 755 mmHg 89%
    05:00 +17°C° 0 mm 2 mps 755 mmHg 81%
    06:00 +19°C° 0 mm 1 mps 755 mmHg 74%
    07:00 +21°C° 0 mm 1 mps 756 mmHg 66%
    08:00 +24°C° 0 mm 1 mps 756 mmHg 56%
    09:00 +26°C° 0 mm 2 mps 756 mmHg 45%
    10:00 +29°C° 0 mm 2 mps 755 mmHg 32%
    11:00 +30°C° 0 mm 2 mps 755 mmHg 29%
    12:00 +30°C° 0 mm 3 mps 755 mmHg 27%
    13:00 +32°C° 0 mm 4 mps 755 mmHg 24%
    14:00 +32°C° 0 mm 4 mps 754 mmHg 25%
    15:00 +30°C° 0 mm 4 mps 754 mmHg 27%
    16:00 +30°C° 0 mm 4 mps 754 mmHg 29%
    17:00 +27°C° 0 mm 3 mps 754 mmHg 40%
    18:00 +24°C° 0 mm 3 mps 754 mmHg 50%
    19:00 +20°C° 0 mm 3 mps 754 mmHg 61%
    20:00 +19°C° 0 mm 2 mps 754 mmHg 66%
    21:00 +17°C° 0 mm 2 mps 754 mmHg 72%
    22:00 +16°C° 0 mm 2 mps 754 mmHg 77%
    23:00 +16°C° 0 mm 2 mps 754 mmHg 78%

    Tomorrow, 21 November, Tuesday

    Time Temperature Precipitation Wind Pressure Humidity
    00:00 +15°C° 0 mm 2 mps 754 mmHg 78%
    01:00 +15°C° 0 mm 2 mps 754 mmHg 78%
    02:00 +15°C° 0 mm 2 mps 754 mmHg 79%
    03:00 +15°C° 0 mm 2 mps 754 mmHg 80%
    04:00 +14°C° 0 mm 2 mps 754 mmHg 81%
    05:00 +17°C° 0 mm 2 mps 754 mmHg 73%
    06:00 +19°C° 0 mm 2 mps 754 mmHg 64%
    07:00 +21°C° 0 mm 2 mps 754 mmHg 55%
    08:00 +24°C° 0 mm 2 mps 754 mmHg 47%
    09:00 +27°C° 0 mm 2 mps 754 mmHg 39%
    10:00 +30°C° 0 mm 2 mps 754 mmHg 31%
    11:00 +31°C° 0 mm 3 mps 753 mmHg 29%
    12:00 +31°C° 0 mm 3 mps 753 mmHg 27%
    13:00 +33°C° 0 mm 3 mps 753 mmHg 25%
    14:00 +31°C° 0 mm 3 mps 752 mmHg 26%
    15:00 +31°C° 0 mm 3 mps 752 mmHg 28%
    16:00 +30°C° 0 mm 4 mps 752 mmHg 29%
    17:00 +28°C° 0 mm 3 mps 752 mmHg 39%
    18:00 +26°C° 0 mm 3 mps 752 mmHg 48%
    19:00 +22°C° 0 mm 3 mps 752 mmHg 58%
    20:00 +20°C° 0 mm 2 mps 752 mmHg 65%
    21:00 +19°C° 0 mm 2 mps 752 mmHg 71%
    22:00 +17°C° 0 mm 2 mps 753 mmHg 77%
    23:00 +17°C° 0 mm 2 mps 752 mmHg 78%

    Day after tomorrow, 22 November, Wednesday

    Time Temperature Precipitation Wind Pressure Humidity
    00:00 +16°C° 0 mm 2 mps 752 mmHg 79%
    01:00 +16°C° 0 mm 2 mps 752 mmHg 80%
    02:00 +16°C° 0 mm 2 mps 752 mmHg 80%
    03:00 +16°C° 0 mm 2 mps 751 mmHg 80%
    04:00 +15°C° 0 mm 2 mps 751 mmHg 80%
    05:00 +18°C° 0 mm 2 mps 751 mmHg 72%
    06:00 +20°C° 0 mm 2 mps 751 mmHg 64%
    07:00 +23°C° 0 mm 2 mps 752 mmHg 56%
    08:00 +26°C° 0 mm 2 mps 751 mmHg 48%
    09:00 +28°C° 0 mm 2 mps 751 mmHg 40%
    10:00 +31°C° 0 mm 2 mps 751 mmHg 33%
    11:00 +33°C° 0 mm 3 mps 751 mmHg 31%
    12:00 +33°C° 0 mm 3 mps 750 mmHg 30%
    13:00 +33°C° 0 mm 4 mps 750 mmHg 28%
    14:00 +32°C° 0 mm 4 mps 750 mmHg 32%
    15:00 +29°C° 0 mm 4 mps 749 mmHg 37%
    16:00 +28°C° 0 mm 4 mps 749 mmHg 41%
    17:00 +26°C° 0 mm 3 mps 749 mmHg 48%
    18:00 +24°C° 0 mm 3 mps 749 mmHg 54%
    19:00 +21°C° 0 mm 2 mps 749 mmHg 61%
    20:00 +20°C° 0 mm 2 mps 750 mmHg 66%
    21:00 +18°C° 0 mm 2 mps 750 mmHg 70%
    22:00 +17°C° 0 mm 2 mps 750 mmHg 75%
    23:00 +16°C° 0 mm 2 mps 749 mmHg 75%

    23 November, Thursday

    Time Temperature Precipitation Wind Pressure Humidity
    00:00 +16°C° 0 mm 2 mps 749 mmHg 76%
    01:00 +16°C° 0 mm 2 mps 749 mmHg 77%
    02:00 +15°C° 0 mm 2 mps 748 mmHg 78%
    03:00 +14°C° 0 mm 3 mps 748 mmHg 80%
    04:00 +14°C° 0 mm 3 mps 748 mmHg 81%
    05:00 +17°C° 0 mm 3 mps 748 mmHg 74%
    06:00 +19°C° 0 mm 3 mps 748 mmHg 66%
    07:00 +21°C° 0 mm 3 mps 748 mmHg 59%
    08:00 +25°C° 0 mm 3 mps 748 mmHg 49%
    09:00 +27°C° 0 mm 3 mps 748 mmHg 39%
    10:00 +30°C° 0 mm 3 mps 748 mmHg 29%
    11:00 +31°C° 0 mm 3 mps 747 mmHg 28%
    12:00 +31°C° 0 mm 3 mps 747 mmHg 26%
    13:00 +33°C° 0 mm 4 mps 747 mmHg 25%
    14:00 +32°C° 0 mm 4 mps 746 mmHg 30%
    15:00 +29°C° 0 mm 4 mps 746 mmHg 35%
    16:00 +28°C° 0 mm 4 mps 746 mmHg 41%
    17:00 +26°C° 0.4 mm 3 mps 746 mmHg 52%
    18:00 +22°C° 0.4 mm 3 mps 746 mmHg 64%
    19:00 +19°C° 0.4 mm 2 mps 746 mmHg 76%
    20:00 +18°C° 0.3 mm 2 mps 746 mmHg 80%
    21:00 +18°C° 0.3 mm 1 mps 747 mmHg 83%
    22:00 +15°C° 0.3 mm 1 mps 747 mmHg 87%
    23:00 +15°C° 0.2 mm 1 mps 746 mmHg 88%

    24 November, Friday

    Time Temperature Precipitation Wind Pressure Humidity
    00:00 +15°C° 0.2 mm 1 mps 746 mmHg 88%
    01:00 +14°C° 0.2 mm 1 mps 745 mmHg 89%
    02:00 +14°C° 0 mm 1 mps 745 mmHg 89%
    03:00 +14°C° 0 mm 2 mps 745 mmHg 90%
    04:00 +14°C° 0 mm 2 mps 745 mmHg 90%
    05:00 +16°C° 0 mm 2 mps 745 mmHg 85%
    06:00 +19°C° 0 mm 1 mps 746 mmHg 79%
    07:00 +20°C° 0 mm 1 mps 746 mmHg 74%
    08:00 +20°C° 0 mm 2 mps 746 mmHg 69%
    09:00 +23°C° 0 mm 2 mps 746 mmHg 65%
    10:00 +24°C° 0 mm 2 mps 746 mmHg 60%
    11:00 +25°C° 0.1 mm 2 mps 746 mmHg 56%
    12:00 +27°C° 0.1 mm 2 mps 746 mmHg 53%
    13:00 +28°C° 0.1 mm 2 mps 746 mmHg 49%
    14:00 +26°C° 0.7 mm 2 mps 746 mmHg 56%
    15:00 +25°C° 0.7 mm 2 mps 746 mmHg 62%
    16:00 +24°C° 0.7 mm 2 mps 746 mmHg 69%
    17:00 +21°C° 0.1 mm 2 mps 746 mmHg 74%
    18:00 +21°C° 0.1 mm 1 mps 746 mmHg 78%
    19:00 +20°C° 0.1 mm 1 mps 747 mmHg 83%
    20:00 +19°C° 0 mm 1 mps 747 mmHg 87%
    21:00 +16°C° 0 mm 0 mps 747 mmHg 92%
    22:00 +14°C° 0 mm 0 mps 747 mmHg 96%
    23:00 +14°C° 0 mm 0 mps 747 mmHg 97%

    25 November, Saturday

    Time Temperature Precipitation Wind Pressure Humidity
    00:00 +14°C° 0 mm 0 mps 747 mmHg 97%
    01:00 +13°C° 0 mm 0 mps 747 mmHg 97%
    02:00 +14°C° 0 mm 1 mps 747 mmHg 98%
    03:00 +14°C° 0 mm 1 mps 747 mmHg 98%
    04:00 +14°C° 0 mm 1 mps 747 mmHg 98%
    05:00 +15°C° 0 mm 1 mps 748 mmHg 93%
    06:00 +18°C° 0 mm 1 mps 748 mmHg 87%
    07:00 +19°C° 0 mm 2 mps 749 mmHg 82%
    08:00 +21°C° 0 mm 2 mps 749 mmHg 72%
    09:00 +24°C° 0 mm 2 mps 749 mmHg 62%
    10:00 +27°C° 0 mm 2 mps 749 mmHg 52%
    11:00 +26°C° 0.4 mm 3 mps 749 mmHg 56%
    12:00 +26°C° 0.4 mm 3 mps 748 mmHg 59%
    13:00 +26°C° 0.4 mm 3 mps 748 mmHg 63%
    14:00 +24°C° 1.6 mm 3 mps 748 mmHg 71%
    15:00 +23°C° 1.6 mm 2 mps 748 mmHg 79%
    16:00 +20°C° 1.6 mm 2 mps 749 mmHg 87%
    17:00 +20°C° 0.8 mm 2 mps 749 mmHg 89%
    18:00 +20°C° 0.8 mm 1 mps 749 mmHg 92%
    19:00 +19°C° 0.8 mm 1 mps 749 mmHg 94%
    20:00 +18°C° 0.2 mm 1 mps 749 mmHg 96%
    21:00 +18°C° 0.2 mm 1 mps 750 mmHg 97%
    22:00 +16°C° 0.2 mm 1 mps 750 mmHg 99%
    23:00 +16°C° 0.1 mm 1 mps 749 mmHg 99%
    Show more